Location: Newark
(41.6478°N, 9.0078°E)
Time: 02:15:56
(UTC+00:00)

NOAA 19 - Visible Passes

Search period start: 22 January 2020 00:00
Search period end: 01 February 2020 00:00
Orbit: 840 x 862 km, 99.2° (Epoch: 21 January)

Date Brightness Start Highest point End Pass type
(mag) Time Alt. Az. Time Alt. Az. Time Alt. Az.
22 Jan 6.5 04:43:27 10° NNE 04:48:35 41° E 04:53:42 10° SSE visible
22 Jan 8.4 17:53:59 10° WSW 17:56:33 13° W 17:59:09 10° WNW visible
23 Jan 7.0 04:31:57 10° NE 04:36:50 32° E 04:41:40 10° SSE visible
23 Jan 8.2 17:41:11 10° SW 17:44:43 17° W 17:48:17 10° NW visible
24 Jan 7.4 04:20:34 10° NE 04:25:02 25° E 04:29:30 10° SSE visible
24 Jan 5.5 06:00:43 10° N 06:05:50 43° WNW 06:10:57 10° SW visible
24 Jan 7.9 17:28:43 10° SW 17:32:54 22° W 17:37:07 10° NW visible
25 Jan 7.7 04:09:18 10° NE 04:13:14 20° E 04:17:10 10° SE visible
25 Jan 5.3 05:48:54 10° N 05:54:13 54° WNW 05:59:30 10° SSW visible
25 Jan 7.5 17:16:27 10° SSW 17:21:06 28° W 17:25:47 10° NW visible
26 Jan 8.0 03:58:14 10° NE 04:01:25 16° E 04:04:35 10° SE visible
26 Jan 5.1 05:37:07 10° N 05:42:33 69° WNW 05:47:58 10° SSW visible
26 Jan 7.1 17:04:20 10° SSW 17:09:20 35° W 17:14:21 10° NNW visible
27 Jan 8.3 03:47:37 10° ENE 03:49:33 12° E 03:51:30 10° ESE visible
27 Jan 5.2 05:25:24 10° NNE 05:30:53 86° WNW 05:36:21 10° SSW visible
27 Jan 6.6 16:52:20 10° S 16:57:36 45° W 17:02:50 10° NNW visible
28 Jan 5.4 05:13:43 10° NNE 05:19:12 75° ESE 05:24:39 10° S visible
29 Jan 5.8 05:02:04 10° NNE 05:07:29 59° ESE 05:12:51 10° S visible
30 Jan 6.3 04:50:30 10° NNE 04:55:45 46° E 05:00:59 10° S visible
30 Jan 8.6 18:02:02 10° WSW 18:03:47 11° W 18:05:33 10° WNW visible
31 Jan 6.8 04:38:59 10° NNE 04:43:59 36° E 04:49:00 10° SSE visible
31 Jan 8.3 17:48:51 10° SW 17:51:56 15° W 17:55:02 10° NW visible
